This is the latest recevied weather packets stored in our database for station/object KE4EST. If no packets are shown the sender has not sent any weather packets the latest 10 day(s).
| Time | Temp. | Humidity | Pressure | Rain* | Wind** | Luminosity | Snow |
|---|---|---|---|---|---|---|---|
| 1777731403 | 13.89° C | 67% | 1014.1 hPa | 0 mm | - | 139 W/m² | - |
| 1777731101 | 13.33° C | 69% | 1013.8 hPa | 0 mm | - | 186 W/m² | - |
| 1777730800 | 13.33° C | 70% | 1013.8 hPa | 0 mm | - | 137 W/m² | - |
| 1777730496 | 12.78° C | 70% | 1013.8 hPa | 0 mm | - | 152 W/m² | - |
| 1777730192 | 12.22° C | 70% | 1013.7 hPa | 0 mm | - | 71 W/m² | - |
| 1777729889 | 12.22° C | 72% | 1013.7 hPa | 0 mm | - | 51 W/m² | - |
| 1777729586 | 12.22° C | 73% | 1013.8 hPa | 0 mm | - | 98 W/m² | - |
| 1777729282 | 11.67° C | 74% | 1013.7 hPa | 0 mm | - | 54 W/m² | - |
| 1777728979 | 11.67° C | 78% | 1013.8 hPa | 0 mm | - | 67 W/m² | - |
| 1777728675 | 11.11° C | 77% | 1013.8 hPa | 0 mm | - | 73 W/m² | - |
| 1777728373 | 11.11° C | 77% | 1013.7 hPa | 0 mm | - | 79 W/m² | - |
| 1777728070 | 11.67° C | 75% | 1013.5 hPa | 0 mm | - | 66 W/m² | - |
| 1777727766 | 11.11° C | 76% | 1013.4 hPa | 0 mm | - | 92 W/m² | - |
| 1777727464 | 10.56° C | 78% | 1013.7 hPa | 0 mm | - | 103 W/m² | - |
| 1777727161 | 10.56° C | 77% | 1013.6 hPa | 0 mm | - | 63 W/m² | - |
| 1777726859 | 10.56° C | 78% | 1013.4 hPa | 0 mm | - | 54 W/m² | - |
| 1777726554 | 10.56° C | 79% | 1013.4 hPa | 0 mm | - | 69 W/m² | - |
| 1777726252 | 10.56° C | 78% | 1013.6 hPa | 0 mm | - | 53 W/m² | - |
| 1777725949 | 10.56° C | 80% | 1013.7 hPa | 0 mm | - | 52 W/m² | - |
| 1777725646 | 10.56° C | 79% | 1013.5 hPa | 0 mm | - | 56 W/m² | - |
| 1777725344 | 10° C | 80% | 1013.6 hPa | 0 mm | - | 60 W/m² | - |
| 1777725040 | 10° C | 81% | 1013.5 hPa | 0 mm | - | 37 W/m² | - |
| 1777724737 | 10° C | 80% | 1013.6 hPa | 0 mm | - | 41 W/m² | - |
| 1777724435 | 10° C | 78% | 1013.2 hPa | 0 mm | - | 40 W/m² | - |
| 1777724132 | 10° C | 79% | 1013.5 hPa | 0 mm | - | 38 W/m² | - |
* Rain latest hour (hover to see other rain measurements)
** Current wind speed in m/s (hover to see current wind gust speed)